Zurück zum Katalog

IRAS

AktivWissenschaftSSO
NORAD 13777·PAYLOAD·🇺🇸 United States

Gestartet Jan 26, 1983 von Vandenberg Space Force Base

Loading…

Nächste Überflüge (nächste 24 Stunden)

TLE

AktuellSource: Space-Track

Epoche: Sep 14, 2026, 00:00 UTC

1 13777U 83004A   26257.00013768  .00000305  00000-0  23302-3 0  9998
2 13777  99.0710  77.9347 0019647  79.8716 280.4664 14.00990453898814

Verfolge IRAS in Echtzeit mit AllMySat

Download on the App Store